Regional Weather Roundup
Issued by NWS Sterling, VA

Home | Current Version | Previous Version | Graphics & Text | Print | Product List | Glossary On
Versions: 1 2 3 4 5 6 7 8 9 10 11 12 13 14 15 16 17 18 19 20 21 22 23 24 25 26 27 28
000
ASUS41 KLWX 231510
RWRLWX

REGIONAL WEATHER ROUNDUP
NATIONAL WEATHER SERVICE BALTIMORE MD/WASHINGTON DC
1100 AM EDT WED APR 23 2014

Note: "FAIR" indicates few or no clouds below 12,000 feet
with no significant weather and/or obstructions to visibility.
 TC=TEMPERATURE CELSIUS

 * =Non NWS site. Station does not report precipitation (e.g. rain,
    snow, etc.), thunder, or fog.

DCZ001-MDZ009-015-VAZ040>042-051-053>054-231600-
WASHINGTON METRO

CITY           SKY/WX    TMP DP  RH WIND       PRES   REMARKS
WASHINGTON NAT PTSUNNY   54  32  43 NW20G30   29.83S
DULLES         PTSUNNY   52  31  44 NW22G30   29.84S
ANDREWS AFB    PTSUNNY   51  32  47 NW20G29   29.82S
FT BELVOIR     MOSUNNY   54  32  43 NW20G30   29.84S
QUANTICO       MOSUNNY   56  31  38 NW21G30   29.85R
COLLEGE PARK*  PTSUNNY   54  32  43 NW12G22   29.82S
LEESBURG*      PTSUNNY   52  36  54 N20G30    29.86R
MANASSAS*      CLOUDY    52  34  50 NW20G28   29.85S
GAITHERSBURG*  CLOUDY    50  34  53 NW22G29   29.85S

$$

MDZ006>007-011-014-231600-
BALTIMORE METRO

CITY           SKY/WX    TMP DP  RH WIND       PRES   REMARKS
BWI AIRPORT    MOSUNNY   53  33  46 NW20G33   29.79S
MD SCIENCE CTR   N/A     53  31  42 MISG      29.80S
MARTIN STATE   PTSUNNY   55  37  50 W22G29    29.80R
ANNAPOLIS      MOSUNNY   53  33  46 NW14G28   29.79S
FORT MEADE*    PTSUNNY   55  32  41 NW18G29   29.83R

$$

MDZ012-015-019>023-231600-
MARYLAND EASTERN SHORE

CITY           SKY/WX    TMP DP  RH WIND       PRES   REMARKS
OCEAN CITY     SUNNY     57  35  43 NW17G31   29.71R
SALISBURY      SUNNY     58  34  40 NW21G37   29.74R
BAY BRIDGE AP* MOSUNNY   52  32  46 NW25G32   29.79S
CAMBRIDGE*     MOSUNNY   55  34  44 NW17G25   29.77S
EASTON*        MOSUNNY   55  36  47 NW21G32   29.81R

$$

MDZ017>025-231600-
SOUTHERN MARYLAND

CITY           SKY/WX    TMP DP  RH WIND       PRES   REMARKS
PATUXENT RIVER MOSUNNY   57  33  40 NW26G33   29.78R
ST INIGOES     MOSUNNY   57  33  40 W22G31    29.79R
LEONARDTOWN*   MOSUNNY   55  32  41 NW14G24   29.81R

$$

MDZ003>005-231600-
NORTH CENTRAL MARYLAND

CITY           SKY/WX    TMP DP  RH WIND       PRES   REMARKS
FREDERICK*     PTSUNNY   52  39  62 NW13G21   29.86R
HAGERSTOWN APT SUNNY     50  35  56 NW28G33   29.84R
WESTMINSTER*   CLOUDY    48  34  57 W16       29.80R

$$

MDZ501>502-231600-
WESTERN MARYLAND

CITY           SKY/WX    TMP DP  RH WIND       PRES   REMARKS
OAKLAND*       CLOUDY    32  32 100 NW12G20   29.89S WCI  23
CUMBERLAND*    CLOUDY    46  32  57 NW10G25   29.95R

$$

VAZ025>031-231600-
SHENANDOAH VALLEY

CITY           SKY/WX    TMP DP  RH WIND       PRES   REMARKS
WINCHESTER*    MOSUNNY   52  32  46 NW28G36   29.86S
STAUNTON*      SUNNY     54  27  36 N15G21    29.89R

$$

WVZ021-048>050-054>055-231600-
EASTERN WEST VIRGINIA PANHANDLE

CITY           SKY/WX    TMP DP  RH WIND       PRES   REMARKS
MARTINSBURG    CLOUDY    49  31  49 NW16G29   29.87R
PETERSBURG*    PTSUNNY   55  38  52 NW18G26   29.93F

$$

VAZ036>039-050-231600-
CENTRAL FOOTHILLS

CITY           SKY/WX    TMP DP  RH WIND       PRES   REMARKS
CHARLOTTESVILL SUNNY     57  30  35 NE13G18   29.85R
CULPEPER*      SUNNY     57  28  33 N14G22    29.86R

$$

VAZ055>057-231600-
NORTH AND CENTRAL PIEDMONT

CITY           SKY/WX    TMP DP  RH WIND       PRES   REMARKS
FREDERICKSBRG* MOSUNNY   57  32  39 N18G24    29.83S
STAFFORD*      MOSUNNY   55  35  46 N22G31    29.89R

$$

NCZ024-NYZ072-PAZ021-071-VAZ022-071-231600-
OTHER REGIONAL OBSERVATIONS

CITY           SKY/WX    TMP DP  RH WIND       PRES   REMARKS
NEW YORK CITY  CLOUDY    51  34  52 NW13G28   29.63R
PHILADELPHIA   CLOUDY    53  31  42 NW20G28   29.71S
PITTSBURGH     CLOUDY    41  32  70 NW15      29.98R
ROANOKE        MOSUNNY   56  27  32 NW17G23   29.91R
RICHMOND       MOSUNNY   62  30  29 N16G29    29.82R
RALEIGH        MOSUNNY   63  26  24 W13G24    29.87R

$$

ANZ530>537-231600-
MARINE OBSERVATIONS

STATION/POSITION TIME  TEMP    WIND        PRES
                       AIR SEA DIR/SP/G
                 (UTC) (F)     (DEG/KT/KT) (MB)
THOMAS PT LIGHT  1500   51 53  300/ 24/ 28 1008.8R
BALT KEY BRIDGE  1500   50     290/ 20/ 26 1009.1
COVE POINT       1500   52     350/ 30/ 35 1008.2
LEWISETTA        1500   55 57  330/ 21/ 30 1008.9
SOLOMONS ISLAND  1500      55                N/A
PINEY POINT      1500          330/ 28/ 32   N/A

$$




USA.gov is the U.S. government's official web portal to all federal, state and local government web resources and services.